Location: Unspecified
(22.6800°N, 112.2000°E)
Time: 04:07:01
(UTC+08:00)

S-56A Canister/Altair - Pass Details

Date: 24 July 2021
Orbit: 632 x 2500 km, 38.9° (Epoch: 27 September)

Event Time Altitude Azimuth Distance (km) Brightness Sun altitude
Rises 17:27:34 0° 252° (WSW) 5,864 13.0 23.1°
Reaches altitude 10° 17:31:18 10° 255° (WSW) 4,994 12.9 22.3°
Maximum altitude 17:46:01 61° 333° (NNW) 2,731 10.9 19.0°
Drops below altitude 10° 17:59:47 10° 52° (NE) 4,684 11.2 15.9°
Sets 18:03:12 0° 57° (ENE) 5,492 11.5 15.1°
